Home > Weather > Knoxville > Past weeks

Flag for U.S.A. Weather for the Past 2 Weeks in Knoxville, Tennessee, U.S.A.

Now
34 °F

Passing clouds.


Feels Like: 34 °F
Forecast: 26 / 47 °F
Wind: No wind

Location: McGhee Tyson Airport

Current Time: Feb 5, 2016 at 11:09:44 PM

Latest Report: Feb 5, 2016 at 9:53 PM


Visibility: 10 mi

Pressure: 30.41 "Hg

Humidity: 48%

Dew point: 16 °F

Location of KnoxvilleLocation

Historic Weather in Knoxville — Graph

°F

Knoxville Temperature Yesterday

Maximum temperature yesterday: 45 °F (at 2:53 PM)
Minimum temperature yesterday: 33 °F (at 11:53 PM)
Average temperature yesterday: 40 °F

High & Low Weather Summary for the Past Weeks

 TemperatureHumidityPressure
High75 °F (Feb 2, 3:53 PM)100% (Jan 28, 8:53 AM)30.47 "Hg (Jan 28, 8:53 AM)
Low16 °F (Jan 24, 7:53 AM)31% (Feb 5, 3:53 PM)29.57 "Hg (Jan 22, 4:57 PM)
Average42 °F72%30.04 "Hg
* Reported Jan 21 9:53 PM — Feb 5 9:53 PM, Knoxville, Weather by CustomWeather, © 2016

Note: Actual official high and low records may vary slightly from our data, if they occured in-between our weather recording intervals... More about our weather records

Advertising

Knoxville Weather History for the Previous 24 Hours

 ConditionsComfort  
Time TempWeatherWind HumidityBarometerVisibility
9:53 PM
Fri, Feb 5
34 °FPassing clouds.No wind48%30.41 "Hg10 mi
8:53 PM36 °FPassing clouds.No wind46%30.40 "Hg10 mi
7:53 PM38 °FPassing clouds.3 mph37%30.40 "Hg10 mi
6:53 PM39 °FPassing clouds.6 mph39%30.41 "Hg10 mi
5:53 PM41 °FPartly sunny.5 mph35%30.40 "Hg10 mi
4:53 PM43 °FPartly sunny.7 mph32%30.40 "Hg10 mi
3:53 PM44 °FPartly sunny.6 mph31%30.39 "Hg10 mi
2:53 PM42 °FPartly sunny.3 mph32%30.40 "Hg10 mi
1:53 PM42 °FScattered clouds.3 mph33%30.41 "Hg10 mi
11:53 AM38 °FPassing clouds.10 mph45%30.45 "Hg10 mi
10:53 AM37 °FSunny.8 mph46%30.47 "Hg10 mi
9:53 AM33 °FSunny.9 mph56%30.47 "Hg10 mi
8:53 AM31 °FSunny.6 mph64%30.46 "Hg10 mi
7:53 AM27 °FSunny.5 mph72%30.44 "Hg10 mi
6:53 AM29 °FClear.No wind64%30.44 "Hg10 mi
5:53 AM29 °FClear.3 mph66%30.41 "Hg10 mi
4:53 AM30 °FClear.3 mph61%30.38 "Hg10 mi
3:53 AM30 °FClear.5 mph61%30.37 "Hg10 mi
2:53 AM31 °FClear.5 mph57%30.36 "Hg10 mi
1:53 AM32 °FPassing clouds.8 mph54%30.34 "Hg10 mi
12:53 AM32 °FPassing clouds.8 mph56%30.33 "Hg10 mi
11:53 PM
Thu, Feb 4
33 °FPassing clouds.8 mph56%30.32 "Hg10 mi
Weather by CustomWeather, © 2016

See weather overviewHow to use our weather pages